Flag for Canada Weather past 2 weeks in Saint John, New Brunswick, Canada

Now
43 °F

Partly sunny.


Feels Like: 35 °F
Forecast: 32 / 50 °F
Wind: 15 mph from Northwest

Location: Saint John


UV Index: 5 (Moderate)

Visibility: 15 mi


Pressure: 30.13 "Hg

Humidity: 61%

Dew point: 30 °F

Location of Saint JohnLocation

Historic Weather in Saint John

°F

Saint John temperature yesterday

Maximum temperature yesterday: 48 °F (at 3:00 PM)
Minimum temperature yesterday: 23 °F (at 6:00 AM)
Average temperature yesterday: 36 °F

Past Weeks' High & Low Weather Summary

 TemperatureHumidityPressure
High59 °F (Apr 15, 4:00 PM)100% (Apr 5, 7:00 PM)30.85 "Hg (Apr 5, 7:00 PM)
Low21 °F (Apr 17, 5:00 AM)18% (Apr 18, 2:00 PM)29.28 "Hg (Apr 9, 1:45 AM)
Average39 °F72%30.03 "Hg
* Reported Apr 4 8:00 PM — Apr 19 8:00 PM, Saint John, Weather by CustomWeather, © 2014

Note: Actual official high and low records may vary slightly from our data, if they occured in-between our weather recording intervals... More about our weather records

Advertising

Historic Weather Conditions — Data for Previous 24 hours

 ConditionsComfort  
Time TempWeatherWind HumidityBarometerVisibility
8:00 PM
Apr 19
43 °FPartly sunny.15 mph61%30.13 "Hg15 mi
7:00 PM45 °FPartly sunny.17 mph57%30.10 "Hg15 mi
6:00 PM48 °FPartly sunny.22 mph46%30.07 "Hg15 mi
5:00 PM48 °FBroken clouds.21 mph46%30.05 "Hg15 mi
4:00 PM45 °FPartly sunny.7 mph61%30.05 "Hg15 mi
3:00 PM46 °FPartly sunny.12 mph57%30.06 "Hg15 mi
2:00 PM46 °FMostly cloudy.9 mph57%30.06 "Hg15 mi
1:00 PM45 °FMore clouds than sun.8 mph57%30.07 "Hg15 mi
12:00 PM43 °FBroken clouds.9 mph61%30.08 "Hg15 mi
11:00 AM41 °FBroken clouds.8 mph61%30.09 "Hg15 mi
10:00 AM36 °FBroken clouds.2 mph75%30.09 "Hg15 mi
9:00 AM34 °FMostly cloudy.7 mph81%30.11 "Hg15 mi
8:00 AM34 °FPartly sunny.5 mph81%30.12 "Hg15 mi
7:00 AM32 °FPartly cloudy.3 mph87%30.12 "Hg15 mi
6:00 AM32 °FMostly cloudy.3 mph87%30.14 "Hg12 mi
5:00 AM32 °FMostly cloudy.2 mph93%30.15 "Hg10 mi
4:00 AM32 °FOvercast.No wind87%30.17 "Hg10 mi
3:00 AM30 °FMostly cloudy.3 mph93%30.21 "Hg15 mi
2:00 AM30 °FPassing clouds.6 mph93%30.23 "Hg15 mi
1:00 AM28 °FPassing clouds.5 mph93%30.25 "Hg15 mi
12:00 AM32 °FPassing clouds.3 mph80%30.25 "Hg15 mi
11:00 PM
Apr 18
32 °FOvercast.5 mph69%30.28 "Hg15 mi
10:00 PM36 °FOvercast.3 mph60%30.31 "Hg15 mi
9:00 PM36 °FMostly cloudy.3 mph52%30.31 "Hg15 mi
Weather by CustomWeather, © 2014

See weather overview